2024/01/27 00:00:00,54.4,-0.2
2024/01/27 00:10:00,54.3,-0.2
2024/01/27 00:20:00,54.2,-0.6
2024/01/27 00:30:00,54.0,-0.3
2024/01/27 00:40:00,53.7,-0.3
2024/01/27 00:50:00,53.6,-0.4
2024/01/27 01:00:00,53.5,-0.1
2024/01/27 01:10:00,53.4,-0.3
2024/01/27 01:20:00,53.4,-0.2
2024/01/27 01:30:00,53.3,-0.1
2024/01/27 01:40:00,53.2,-0.3
2024/01/27 01:50:00,53.2,-0.1
2024/01/27 02:00:00,53.2,-0.2
2024/01/27 02:10:00,53.1,-0.2
2024/01/27 02:20:00,53.1,-0.3
2024/01/27 02:30:00,53.0,-0.3
2024/01/27 02:40:00,52.9,-0.1
2024/01/27 02:50:00,52.9,-0.3
2024/01/27 03:00:00,52.9,-0.6
2024/01/27 03:10:00,52.8,-0.1
2024/01/27 03:20:00,52.8,-0.1
2024/01/27 03:30:00,52.7, 0.0
2024/01/27 03:40:00,52.7, 0.0
2024/01/27 03:50:00,52.6,-0.2
2024/01/27 04:00:00,52.6,-0.2
2024/01/27 04:10:00,52.6,-0.1
2024/01/27 04:20:00,52.5,-0.2
2024/01/27 04:30:00,52.5,-0.2
2024/01/27 04:40:00,52.5,-0.2
2024/01/27 04:50:00,52.4,-0.1
2024/01/27 05:00:00,52.4,-0.3
2024/01/27 05:10:00,52.4,-0.2
2024/01/27 05:20:00,52.5,-0.1
2024/01/27 05:30:00,52.5,-0.2
2024/01/27 05:40:00,52.5,-0.2
2024/01/27 05:50:00,52.4,-0.2
2024/01/27 06:00:00,52.3, 0.0
2024/01/27 06:10:00,52.2, 0.0
2024/01/27 06:20:00,52.1, 0.1
2024/01/27 06:30:00,52.1,-0.2
2024/01/27 06:40:00,52.1,-0.1
2024/01/27 06:50:00,52.0,-0.2
2024/01/27 07:00:00,52.0, 0.0
2024/01/27 07:10:00,51.9,-0.1
2024/01/27 07:20:00,51.8,-0.1
2024/01/27 07:30:00,51.7,-0.1
2024/01/27 07:40:00,51.7, 0.0
2024/01/27 07:50:00,51.7, 0.1
2024/01/27 08:00:00,51.7, 0.1
2024/01/27 08:10:00,51.7, 0.5
2024/01/27 08:20:00,51.6, 0.6
2024/01/27 08:30:00,51.5, 0.5
2024/01/27 08:40:00,51.4, 0.3
2024/01/27 08:50:00,51.4, 0.3
2024/01/27 09:00:00,51.3, 0.5
2024/01/27 09:10:00,51.3, 1.2
2024/01/27 09:20:00,51.4, 1.4
2024/01/27 09:30:00,51.2, 2.7
2024/01/27 09:40:00,51.1, 2.5
2024/01/27 09:50:00,51.1, 2.9
2024/01/27 10:00:00,51.1, 3.3
2024/01/27 10:10:00,51.1, 4.2
2024/01/27 10:20:00,51.1, 4.8
2024/01/27 10:30:00,51.1, 8.0
2024/01/27 10:40:00,51.0, 5.3
2024/01/27 10:50:00,50.9, 6.5
2024/01/27 11:00:00,51.2,13.1
2024/01/27 11:10:00,51.2,14.2
2024/01/27 11:20:00,51.1,14.5
2024/01/27 11:30:00,50.9,13.2
2024/01/27 11:40:00,50.9,16.0
2024/01/27 11:50:00,50.7,16.7
2024/01/27 12:00:00,50.5,17.5
2024/01/27 12:10:00,50.1,14.2
2024/01/27 12:20:00,49.3, 7.1
2024/01/27 12:30:00,49.3,13.8
2024/01/27 12:40:00,48.9, 9.7
2024/01/27 12:50:00,48.6,12.1
2024/01/27 13:00:00,48.1, 8.5
2024/01/27 13:10:00,47.7, 5.5
2024/01/27 13:20:00,47.2, 4.7
2024/01/27 13:30:00,47.1, 4.3
2024/01/27 13:40:00,46.8, 4.4
2024/01/27 13:50:00,46.3, 3.8
2024/01/27 14:00:00,46.1, 2.9
2024/01/27 14:10:00,46.1, 2.8
2024/01/27 14:20:00,45.9, 2.9
2024/01/27 14:30:00,45.7, 2.3
2024/01/27 14:40:00,45.4, 2.6
2024/01/27 14:50:00,45.2, 2.4
2024/01/27 15:00:00,45.0, 1.9
2024/01/27 15:10:00,44.7, 2.9
2024/01/27 15:20:00,44.7, 3.6
2024/01/27 15:30:00,44.3, 4.7
2024/01/27 15:40:00,43.7, 3.8
2024/01/27 15:50:00,43.3, 2.4
2024/01/27 16:00:00,43.1, 2.4
2024/01/27 16:10:00,43.0, 2.1
2024/01/27 16:20:00,42.9, 1.6
2024/01/27 16:30:00,42.5, 1.4
2024/01/27 16:40:00,42.2, 1.5
2024/01/27 16:50:00,42.1, 1.4
2024/01/27 17:00:00,41.9, 0.9
2024/01/27 17:10:00,41.7, 1.1
2024/01/27 17:20:00,41.5, 0.4
2024/01/27 17:30:00,41.3, 0.3
2024/01/27 17:40:00,41.1,-0.1
2024/01/27 17:50:00,40.9,-0.2
2024/01/27 18:00:00,40.8,-0.4
2024/01/27 18:10:00,40.7,-0.5
2024/01/27 18:20:00,40.6,-0.7
2024/01/27 18:30:00,40.6,-0.5
2024/01/27 18:40:00,40.5,-0.5
2024/01/27 18:50:00,40.4,-0.3
2024/01/27 19:00:00,40.4,-0.1
2024/01/27 19:10:00,40.4, 0.0
2024/01/27 19:20:00,40.3, 0.1
2024/01/27 19:30:00,40.2, 0.1
2024/01/27 19:40:00,40.2, 0.1
2024/01/27 19:50:00,40.1,-0.2
2024/01/27 20:00:00,40.0,-0.1
2024/01/27 20:10:00,40.0,-0.1
2024/01/27 20:20:00,39.9, 0.1
2024/01/27 20:30:00,39.8, 0.0
2024/01/27 20:40:00,39.7,-0.3
2024/01/27 20:50:00,39.5,-0.1
2024/01/27 21:00:00,39.4,-0.1
2024/01/27 21:10:00,39.3, 0.1
2024/01/27 21:20:00,39.2, 0.2
2024/01/27 21:30:00,39.2, 0.1
2024/01/27 21:40:00,39.1, 0.2
2024/01/27 21:50:00,39.1, 0.2
2024/01/27 22:00:00,39.1,-0.1
2024/01/27 22:10:00,39.1, 0.4
2024/01/27 22:20:00,39.0, 0.0
2024/01/27 22:30:00,39.0, 0.1
2024/01/27 22:40:00,39.1,-0.2
2024/01/27 22:50:00,39.2,-0.1
2024/01/27 23:00:00,39.3, 0.1
2024/01/27 23:10:00,39.2,-0.1
2024/01/27 23:20:00,39.0, 0.2
2024/01/27 23:30:00,38.9,-0.3
2024/01/27 23:40:00,38.8,-0.4
2024/01/27 23:50:00,38.7,-0.6
